Flag for Colombia Weather past 2 weeks in Bogota, Colombia

Now
59 °F

Scattered showers. Scattered clouds.


Feels Like: 59 °F
Forecast: N/A
Wind: 2 mph from North

Location: Bogota / Eldorado


UV Index: N/A

Visibility: N/A


Pressure: 30.25 "Hg

Humidity: 77%

Dew point: 52 °F

Location of BogotaLocation

Historic Weather in Bogota

°F

Bogota temperature yesterday

Maximum temperature yesterday: 63 °F (at 11:00 AM)
Minimum temperature yesterday: 54 °F (at 2:00 AM)
Average temperature yesterday: 56 °F

Past Weeks' High & Low Weather Summary

 TemperatureHumidityPressure
High72 °F (Apr 14, 12:00 PM)100% (Apr 13, 4:00 AM)30.41 "Hg (Apr 13, 4:00 AM)
Low43 °F (Apr 13, 4:00 AM)35% (Apr 9, 2:00 PM)30.17 "Hg (Apr 14, 4:00 PM)
Average57 °F76%30.31 "Hg
* Reported Apr 8 5:00 PM — Apr 23 5:00 PM, Bogota, Weather by CustomWeather, © 2014

Note: Actual official high and low records may vary slightly from our data, if they occured in-between our weather recording intervals... More about our weather records

Advertising

Historic Weather Conditions — Data for Previous 24 hours

 ConditionsComfort  
Time TempWeatherWind HumidityBarometerVisibility
5:00 PM
Apr 23
61 °FScattered showers. Scattered clouds.5 mph77%30.23 "HgN/A
4:00 PM61 °FScattered showers. Scattered clouds.N/A83%30.21 "HgN/A
3:00 PM59 °FThunderstorms. Scattered clouds.15 mph82%30.23 "Hg4 mi
2:00 PM63 °FScattered showers. Scattered clouds.14 mph77%30.24 "HgN/A
1:00 PM64 °FScattered showers. Partly sunny.9 mph68%30.27 "Hg4 mi
12:00 PM66 °FScattered clouds.2 mph52%30.31 "HgN/A
11:00 AM68 °FPartly sunny.3 mph49%30.32 "HgN/A
10:00 AM66 °FScattered clouds.5 mph56%30.33 "HgN/A
9:00 AM63 °FPassing clouds.3 mph64%30.34 "HgN/A
8:00 AM57 °FScattered clouds.6 mph77%30.33 "HgN/A
7:00 AM54 °FPartly sunny.2 mph88%30.33 "HgN/A
6:00 AM46 °FPartly sunny.No wind100%30.32 "HgN/A
5:00 AM50 °FPassing clouds.3 mph94%30.30 "HgN/A
4:00 AM48 °FPassing clouds.6 mph94%30.29 "HgN/A
3:00 AM52 °FPassing clouds.2 mph88%30.28 "HgN/A
2:00 AM52 °FCool.N/A88%30.28 "HgN/A
1:00 AM54 °FPassing clouds.10 mph88%30.30 "HgN/A
12:00 AM54 °FPassing clouds.9 mph88%30.33 "HgN/A
11:00 PM
Apr 22
54 °FPassing clouds.8 mph94%30.35 "HgN/A
10:00 PM54 °FPassing clouds.3 mph94%30.34 "HgN/A
9:00 PM54 °FPassing clouds.2 mph100%30.33 "HgN/A
8:00 PM54 °FPartly cloudy.5 mph100%30.31 "HgN/A
7:00 PM54 °FOvercast.5 mph100%30.29 "HgN/A
6:00 PM55 °FScattered showers. Partly sunny.2 mph94%30.26 "HgN/A
Weather by CustomWeather, © 2014

See weather overview